User: anonymous   Login
Location: Spor
(46.2167°N, 11.0500°E)
Time: 13:54:59
(UTC+00:00)
Language:

STARLINK-1348 - Orbit

View from above orbital plane
View from above orbital plane
View from above satellite
View from above satellite

Ground track
Ground track

The orbit data is extracted from the following two-line orbital elements,

1 45561U 20025AG  20218.35765748  .00000805  00000-0  16696-4 0  9993
2 45561  52.9966 246.4773 0007955 306.0195  54.0078 15.58902490 17075
Epoch (UTC): 05 August 2020 08:35:01
Eccentricity: 0.0007955
inclination: 52.9966°
perigee height: 385 km
apogee height: 396 km
right ascension of ascending node: 246.4773°
argument of perigee: 306.0195°
revolutions per day: 15.58902490
mean anomaly at epoch: 54.0078°
orbit number at epoch: 1707

The dashed part of the orbit path shows where the satellite is in the earth's shadow,  

DLR